SCP
0 0 0 0 0 0 0 0 0 0 0 0 0 0 0 0 0 0 0 0 0 0 0 0 0 0 0 0 0 0 0 0 0 0 0 0 0 0
0 0 0 0 0 0 0 0 0 0 0 0 0 0 0 0 0 0 0 0 0 0 0 0 0 0 0 0 0 0 0 0 0 0 0 0 0 0
0 0 0 0 0 0 0 0 0 0 0 0 0 0 0 0 0 0 0 0 0 0 0 0 0 0 0 0 0 0 0 0 0 0 0 0 0 0
0 0 0 0 0 0 0 0 0 0 0 0 0 0 0 0 0 0 0 0 0 0 0 0 0 0 0 0 0 0 0 0 0 0 0 0 0 0
0 0 0 0 0 0 0 0 0 0 0 0 0 0 0 0 0 0 0 0 0 0 0 0 0 0 0 0 0 0 0 0 0 0 0 0 0 0
0 0 0 0 0 0 0 0 0 0 0 0 0 0 0 0 0 0 0 0 0 0 0 0 0 0 0 0 0 0 0 0 0 0 0 0 0 0
0 0 0 0 0 0 0 0 0 0 0 0 0 0 0 0 0 0 0 0 0 0 0 0 0 0 0 0 0 0 0 0 0 0 0 0 0 0
0 0 0 0 0 0 0 0 0 0 0 0 0 0 0 0 0 0 0 0 0 0 0 0 0 0 0 0 0 0 0 0 0 0 0 0 0 0
0 0 0 0 0 0 0 0 0 0 0 0 0 0 0 0 0 0 0 0 0 0 0 0 0 0 0 0 0 0 0 0 0 0 0 0 0 0
0 0 0 0 0 0 0 0 0 0 0 0 0 0 0 0 0 0 0 0 0 0 0 0 0 0 0 0 0 0 0 0 0 0 0 0 0 0
0 0 0 0 0 0 0 0 0 0 0 0 0 0 0 0 0 0 0 0 0 0 0 0 0 0 0 0 0 0 0 0 0 0 0 0 0 0
0 0 0 0 0 0 0 0 0 0 0 0 0 0 0 0 0 0 0 0 0 0 0 0 0 0 0 0 0 0 0 0 0 0 0 0 0 0
0 0 0 0 0 0 0 0 0 0 0 0 0 0 0 0 0 0 0 0 0 0 0 0 0 0 0 0 0 0 0 0 0 0 0 0 0 0
0 0 0 0 0 0 0 0 0 0 0 0 0 0 0 0 0 0 0 0 0 0 0 0 0 0 0 0 0 0 0 0 0 0 0 0 0 0
0 0 0 0 0 0 0 0 0 0 0 0 0 0 0 0 0 0 0 0 0 0 0 0 0 0 0 0 0 0 0 0 0 0 0 0 0 0
0 0 0 0 0 0 0 0 0 0 0 0 0 0 0 0 0 0 0 0 0 0 0 0 0 0 0 0 0 0 0 0 0 0 0 0 0 0
0 0 0 0 0 0 0 0 0 0 0 0 0 0 0 0 0 0 0 0 0 0 0 0 0 0 0 0 0 0 0 0 0 0 0 0 0 0
0 0 0 0 0 0 0 0 0 0 0 0 0 0 0 0 0 0 0 0 0 0 0 0 0 0 0 0 0 0 0 0 0 0 0 0 0 0
0 0 0 0 0 0 0 0 0 0 0 0 0 0 0 0 0 0 0 0 0 0 0 0 0 0 0 0 0 0 0 0 0 0 0 0 0 0
0 0 0 0 0 0 0 0 0 0 0 0 0 0 0 0 0 0 0 0 0 0 0 0 0 0 0 0 0 0 0 0 0 0 0 0 0 0
0 0 0 0 0 0 0 0 0 0 0 -0 0 0 0 0 0 0 0 0 0 0 0 0 0 0 0 0 0 0 0 0 0 0 0 0 0 0
0 0 0 0 0 0 0 0 0 0 0 -0 -0 0 0 0 0 0 0 0 0 0 0 0 0 0 0 0 0 0 0 0 0 0 0 0 0 0
0 0 0 0 0 0 0 0 0 0 0 0 0 0 0 0 0 0 0 0 0 0 0 0 0 0 0 0 0 0 0 0 0 0 0 0 0 0
Wind_Speed
1 1 1 1 1 2 2 3 4 2 2 2 1 1 1 2 3 2 2 5 6 6 6 6 6 6 6 6 6 5 5 5 4 3 2 2 2 1
1 1 1 1 1 1 1 2 3 3 2 1 1 1 2 3 4 3 3 6 6 7 7 7 7 7 6 6 6 6 5 5 4 4 4 4 3 3
0 1 1 0 0 0 1 1 1 2 3 1 0 1 2 2 2 2 2 2 3 6 7 7 7 7 7 6 6 6 5 5 5 5 5 5 4 4
1 1 0 0 0 0 1 1 1 2 3 3 1 1 1 2 3 3 2 2 2 6 7 7 7 7 6 6 6 5 5 5 5 5 5 5 5 5
1 1 0 1 0 0 1 1 1 1 2 3 2 1 1 2 2 2 2 1 2 4 6 6 6 6 6 6 5 4 4 4 4 4 5 5 5 5
1 1 1 1 1 0 1 1 2 2 2 3 2 1 1 1 2 2 1 0 1 2 3 4 5 5 5 5 5 4 3 3 3 4 4 4 4 5
2 1 2 3 3 2 1 2 2 2 2 2 2 1 1 2 2 2 2 1 0 1 1 1 1 1 2 3 4 4 4 3 3 3 3 3 4 4
2 2 2 3 4 5 5 3 3 3 3 2 2 2 2 2 2 2 3 2 2 2 2 2 2 2 2 2 3 4 4 4 4 4 4 3 3 3
2 2 2 3 3 3 4 5 4 3 3 3 3 2 2 3 3 3 3 3 3 3 3 2 2 2 2 3 6 5 5 5 5 4 4 4 4 3
2 2 2 2 2 3 3 4 3 3 2 1 2 2 2 2 3 3 4 2 1 1 3 2 2 2 2 2 5 6 6 6 5 5 5 4 4 4
2 2 3 2 3 4 4 3 3 2 2 3 2 1 2 3 3 2 2 2 1 1 1 2 2 1 1 2 3 6 6 6 6 6 6 5 5 4
2 2 3 3 3 4 3 3 2 1 2 2 2 2 2 1 2 3 3 3 1 1 2 2 2 2 1 2 2 2 3 5 6 6 6 6 6 3
1 1 1 2 3 3 3 1 1 1 1 1 1 1 1 1 0 1 2 3 2 2 2 3 2 2 2 1 1 2 2 2 3 4 6 7 7 6
2 1 0 2 3 2 1 1 1 2 1 1 1 1 1 1 1 1 1 1 2 3 3 3 3 3 3 1 2 2 2 3 3 3 3 5 6 8
1 2 2 2 2 2 2 1 1 1 1 1 0 1 2 1 1 1 1 0 1 1 2 2 3 3 3 3 2 2 2 2 3 3 3 4 4 3
2 2 3 3 2 2 2 2 1 0 1 1 1 1 1 1 1 0 0 1 1 2 2 2 3 4 3 3 3 3 3 3 3 4 3 3 3 4
2 2 2 2 2 2 2 2 2 2 1 1 0 1 1 1 1 1 0 1 0 1 2 2 1 2 3 3 2 3 3 3 3 4 3 4 5 5
4 2 1 1 0 1 1 1 1 1 1 1 0 0 1 1 1 1 0 1 1 1 2 2 1 1 2 3 5 4 4 4 4 3 4 4 5 5
2 1 0 0 1 1 1 1 1 1 1 1 1 1 1 1 1 1 1 1 1 1 2 2 1 1 1 3 5 5 5 4 3 3 4 4 5 6
1 0 0 1 1 1 1 1 1 1 1 1 1 1 1 1 1 1 1 1 2 2 2 1 2 3 4 4 4 4 6 5 3 4 3 3 4 5
1 1 1 1 1 1 1 0 1 1 1 1 1 1 1 1 1 1 1 2 2 1 2 3 4 4 2 0 2 4 4 6 7 5 4 3 2 2
1 1 0 0 0 0 0 0 1 1 1 1 1 1 2 1 2 2 1 2 2 2 3 3 3 1 1 2 4 5 5 4 5 8 9 8 5 5
1 0 0 0 0 0 0 0 0 1 1 1 2 2 2 2 2 2 2 2 2 2 2 2 2 1 2 2 3 4 5 4 3 3 4 7 10 12
Wind_Direction
212 202 200 228 215 204 181 172 168 193 231 222 182 144 138 118 122 126 134 128 132 132 129 125 120 114 107 102 96 92 86 80 74 66 61 73 78 75
188 165 196 241 239 215 186 181 177 176 197 209 192 157 136 125 118 120 124 120 130 132 131 128 124 120 115 108 101 94 89 85 82 78 72 76 75 77
164 152 189 157 156 223 134 142 151 146 161 198 142 123 124 129 120 110 108 112 124 129 129 127 125 120 116 110 103 97 91 87 82 79 78 78 79 82
162 139 182 124 102 111 135 149 158 153 156 168 171 154 147 152 140 128 122 123 120 124 129 129 127 123 120 112 103 95 89 87 86 85 84 86 88 86
133 137 159 109 104 63 114 125 138 131 141 151 165 151 131 143 119 117 116 89 127 128 131 133 134 131 127 121 112 104 101 98 97 95 92 90 87 86
94 108 95 109 135 117 115 105 97 95 105 128 140 139 142 141 132 146 132 128 141 126 130 138 140 144 145 141 139 133 126 120 111 104 98 94 94 91
68 64 72 87 81 86 101 113 113 109 110 125 141 135 152 167 187 185 166 153 182 168 148 158 153 171 181 175 169 163 156 154 151 142 132 124 114 105
85 66 60 64 65 68 78 96 123 132 141 147 167 180 195 198 184 170 158 155 204 202 165 198 178 206 218 212 201 187 186 187 180 168 157 144 130 120
103 96 79 58 64 68 64 66 70 88 131 157 166 195 193 194 172 174 183 183 196 186 157 191 189 220 227 212 204 205 208 208 202 191 178 168 160 156
81 100 99 71 56 85 81 69 56 43 46 114 173 206 202 193 186 186 185 169 121 143 141 165 196 218 227 216 213 213 215 217 215 206 197 195 190 185
51 73 99 92 77 96 93 85 66 24 42 73 91 121 133 136 139 118 124 134 168 229 172 158 180 193 232 232 225 216 216 220 222 217 213 212 207 197
54 52 73 94 93 98 102 104 96 358 15 27 33 30 49 88 122 144 151 148 157 221 207 158 163 146 219 259 229 217 221 232 232 229 224 218 208 195
110 65 31 91 103 101 109 127 178 164 71 50 24 12 17 24 41 149 160 159 165 220 200 156 158 162 173 231 264 222 204 213 220 233 232 228 215 197
147 163 162 107 99 92 93 82 90 86 81 65 47 355 327 302 280 246 207 196 192 203 195 164 165 174 164 176 245 250 227 220 211 224 228 233 230 222
132 132 105 81 65 38 20 25 47 63 76 90 253 268 264 268 299 337 355 349 323 265 198 182 170 169 169 185 204 212 230 241 216 218 224 222 223 211
72 75 70 59 42 14 5 3 6 23 157 206 253 270 288 314 315 290 328 16 8 329 301 215 191 175 192 205 194 212 209 225 225 216 218 232 232 219
86 58 45 34 17 3 360 358 357 11 11 335 328 333 322 316 301 292 175 114 129 292 310 316 270 211 211 199 215 229 224 232 229 212 207 236 241 229
104 93 77 54 324 300 308 326 342 346 335 321 318 289 280 274 289 316 315 186 213 252 264 269 288 1 347 286 222 225 232 233 237 219 201 218 251 247
102 116 138 243 279 279 271 275 289 297 318 354 344 307 282 272 269 290 288 262 259 258 261 258 213 169 234 279 283 225 215 234 226 225 215 212 233 246
98 143 234 260 261 265 274 290 294 315 332 324 322 324 318 298 295 292 269 263 262 265 280 280 237 207 208 228 255 268 222 214 215 225 232 230 247 264
244 249 244 266 277 274 294 317 331 330 341 340 332 325 318 316 307 298 281 271 264 263 263 261 255 247 225 178 286 283 269 230 216 216 212 214 245 266
254 251 279 339 305 263 49 47 25 6 349 331 309 302 302 299 291 290 280 275 266 256 262 273 292 302 199 227 255 268 278 282 259 243 227 207 197 212
204 168 45 19 4 38 113 112 87 340 335 332 322 312 306 302 293 278 269 263 269 280 284 292 301 282 251 240 255 268 275 278 281 288 273 250 238 241